Year,Month,Day,Hour,Minute,Value (Times are PST for temperature in C)
2008,06,28,00,00,14.90
2008,06,28,00,01,14.90
2008,06,28,00,02,14.90
2008,06,28,00,03,14.80
2008,06,28,00,04,14.80
2008,06,28,00,05,14.80
2008,06,28,00,06,14.80
2008,06,28,00,07,14.80
2008,06,28,00,08,14.80
2008,06,28,00,09,14.80
2008,06,28,00,10,14.70
2008,06,28,00,11,14.70
2008,06,28,00,12,14.70
2008,06,28,00,13,14.70
2008,06,28,00,14,14.60
2008,06,28,00,15,14.60
2008,06,28,00,16,14.60
2008,06,28,00,17,14.60
2008,06,28,00,18,14.60
2008,06,28,00,19,14.60
2008,06,28,00,20,14.50
2008,06,28,00,21,14.50
2008,06,28,00,22,14.50
2008,06,28,00,23,14.50
2008,06,28,00,24,14.50
2008,06,28,00,25,14.40
2008,06,28,00,26,14.40
2008,06,28,00,27,14.40
2008,06,28,00,28,14.40
2008,06,28,00,29,14.40
2008,06,28,00,30,14.40
2008,06,28,00,31,14.40
2008,06,28,00,32,14.40
2008,06,28,00,33,14.30
2008,06,28,00,34,14.30
2008,06,28,00,35,14.30
2008,06,28,00,36,14.30
2008,06,28,00,37,14.30
2008,06,28,00,38,14.30
2008,06,28,00,39,14.30
2008,06,28,00,40,14.30
2008,06,28,00,41,14.30
2008,06,28,00,42,14.30
2008,06,28,00,43,14.30
2008,06,28,00,44,14.20
2008,06,28,00,45,14.20
2008,06,28,00,46,14.20
2008,06,28,00,47,14.20
2008,06,28,00,48,14.20
2008,06,28,00,49,14.20
2008,06,28,00,50,14.20
2008,06,28,00,51,14.20
2008,06,28,00,52,14.20
2008,06,28,00,53,14.20
2008,06,28,00,54,14.20
2008,06,28,00,55,14.20
2008,06,28,00,56,14.20
2008,06,28,00,57,14.20
2008,06,28,00,58,14.20
2008,06,28,00,59,14.20
2008,06,28,01,00,14.20
2008,06,28,01,01,14.20
2008,06,28,01,02,14.20
2008,06,28,01,03,14.20
2008,06,28,01,04,14.20
2008,06,28,01,05,14.20
2008,06,28,01,06,14.20
2008,06,28,01,07,14.20
2008,06,28,01,08,14.20
2008,06,28,01,09,14.20
2008,06,28,01,10,14.20
2008,06,28,01,11,14.20
2008,06,28,01,12,14.20
2008,06,28,01,13,14.20
2008,06,28,01,14,14.20
2008,06,28,01,15,14.20
2008,06,28,01,16,14.20
2008,06,28,01,17,14.20
2008,06,28,01,18,14.10
2008,06,28,01,19,14.10
2008,06,28,01,20,14.10
2008,06,28,01,21,14.00
2008,06,28,01,22,14.00
2008,06,28,01,23,14.00
2008,06,28,01,24,13.90
2008,06,28,01,25,13.90
2008,06,28,01,26,13.90
2008,06,28,01,27,13.90
2008,06,28,01,28,13.80
2008,06,28,01,29,13.80
2008,06,28,01,30,13.80
2008,06,28,01,31,13.80
2008,06,28,01,32,13.80
2008,06,28,01,33,13.70
2008,06,28,01,34,13.70
2008,06,28,01,35,13.70
2008,06,28,01,36,13.70
2008,06,28,01,37,13.70
2008,06,28,01,38,13.70
2008,06,28,01,39,13.70
2008,06,28,01,40,13.70
2008,06,28,01,41,13.70
2008,06,28,01,42,13.70
2008,06,28,01,43,13.70
2008,06,28,01,44,13.70
2008,06,28,01,45,13.70
2008,06,28,01,46,13.70
2008,06,28,01,47,13.70
2008,06,28,01,48,13.70
2008,06,28,01,49,13.70
2008,06,28,01,50,13.80
2008,06,28,01,51,13.80
2008,06,28,01,52,13.80
2008,06,28,01,53,13.80
2008,06,28,01,54,13.80
2008,06,28,01,55,13.70
2008,06,28,01,56,13.70
2008,06,28,01,57,13.70
2008,06,28,01,58,13.70
2008,06,28,01,59,13.70
2008,06,28,02,00,13.70
2008,06,28,02,01,13.70
2008,06,28,02,02,13.70
2008,06,28,02,03,13.70
2008,06,28,02,04,13.70
2008,06,28,02,05,13.70
2008,06,28,02,06,13.70
2008,06,28,02,07,13.60
2008,06,28,02,08,13.60
2008,06,28,02,09,13.60
2008,06,28,02,10,13.60
2008,06,28,02,11,13.60
2008,06,28,02,12,13.50
2008,06,28,02,13,13.50
2008,06,28,02,14,13.50
2008,06,28,02,15,13.50
2008,06,28,02,16,13.50
2008,06,28,02,17,13.40
2008,06,28,02,18,13.40
2008,06,28,02,19,13.40
2008,06,28,02,20,13.40
2008,06,28,02,21,13.40
2008,06,28,02,22,13.40
2008,06,28,02,23,13.40
2008,06,28,02,24,13.40
2008,06,28,02,25,13.30
2008,06,28,02,26,13.30
2008,06,28,02,27,13.30
2008,06,28,02,28,13.30
2008,06,28,02,29,13.30
2008,06,28,02,30,13.30
2008,06,28,02,31,13.30
2008,06,28,02,32,13.30
2008,06,28,02,33,13.30
2008,06,28,02,34,13.30
2008,06,28,02,35,13.30
2008,06,28,02,36,13.30
2008,06,28,02,37,13.30
2008,06,28,02,38,13.30
2008,06,28,02,39,13.30
2008,06,28,02,40,13.30
2008,06,28,02,41,13.30
2008,06,28,02,42,13.30
2008,06,28,02,43,13.30
2008,06,28,02,44,13.30
2008,06,28,02,45,13.30
2008,06,28,02,46,13.30
2008,06,28,02,47,13.30
2008,06,28,02,48,13.30
2008,06,28,02,49,13.30
2008,06,28,02,50,13.30
2008,06,28,02,51,13.30
2008,06,28,02,52,13.30
2008,06,28,02,53,13.30
2008,06,28,02,54,13.30
2008,06,28,02,55,13.30
2008,06,28,02,56,13.30
2008,06,28,02,57,13.30
2008,06,28,02,58,13.30
2008,06,28,02,59,13.30
2008,06,28,03,00,13.30
2008,06,28,03,01,13.20
2008,06,28,03,02,13.20
2008,06,28,03,03,13.20
2008,06,28,03,04,13.20
2008,06,28,03,05,13.10
2008,06,28,03,06,13.10
2008,06,28,03,07,13.10
2008,06,28,03,08,13.10
2008,06,28,03,09,13.10
2008,06,28,03,10,13.10
2008,06,28,03,11,13.10
2008,06,28,03,12,13.10
2008,06,28,03,13,13.10
2008,06,28,03,14,13.10
2008,06,28,03,15,13.10
2008,06,28,03,16,13.10
2008,06,28,03,17,13.10
2008,06,28,03,18,13.10
2008,06,28,03,19,13.10
2008,06,28,03,20,13.00
2008,06,28,03,21,13.00
2008,06,28,03,22,13.00
2008,06,28,03,23,13.00
2008,06,28,03,24,13.00
2008,06,28,03,25,12.90
2008,06,28,03,26,12.90
2008,06,28,03,27,12.90
2008,06,28,03,28,12.90
2008,06,28,03,29,12.90
2008,06,28,03,30,12.90
2008,06,28,03,31,12.90
2008,06,28,03,32,12.80
2008,06,28,03,33,12.80
2008,06,28,03,34,12.80
2008,06,28,03,35,12.80
2008,06,28,03,36,12.80
2008,06,28,03,37,12.80
2008,06,28,03,38,12.80
2008,06,28,03,39,12.80
2008,06,28,03,40,12.80
2008,06,28,03,41,12.80
2008,06,28,03,42,12.80
2008,06,28,03,43,12.80
2008,06,28,03,44,12.70
2008,06,28,03,45,12.70
2008,06,28,03,46,12.70
2008,06,28,03,47,12.70
2008,06,28,03,48,12.70
2008,06,28,03,49,12.70
2008,06,28,03,50,12.70
2008,06,28,03,51,12.70
2008,06,28,03,52,12.70
2008,06,28,03,53,12.70
2008,06,28,03,54,12.70
2008,06,28,03,55,12.70
2008,06,28,03,56,12.60
2008,06,28,03,57,12.60
2008,06,28,03,58,12.60
2008,06,28,03,59,12.60
2008,06,28,04,00,12.60
2008,06,28,04,01,12.60
2008,06,28,04,02,12.60
2008,06,28,04,03,12.60
2008,06,28,04,04,12.60
2008,06,28,04,05,12.60
2008,06,28,04,06,12.50
2008,06,28,04,07,12.50
2008,06,28,04,08,12.50
2008,06,28,04,09,12.50
2008,06,28,04,10,12.50
2008,06,28,04,11,12.50
2008,06,28,04,12,12.50
2008,06,28,04,13,12.40
2008,06,28,04,14,12.40
2008,06,28,04,15,12.40
2008,06,28,04,16,12.40
2008,06,28,04,17,12.40
2008,06,28,04,18,12.40
2008,06,28,04,19,12.40
2008,06,28,04,20,12.40
2008,06,28,04,21,12.40
2008,06,28,04,22,12.40
2008,06,28,04,23,12.40
2008,06,28,04,24,12.40
2008,06,28,04,25,12.30
2008,06,28,04,26,12.30
2008,06,28,04,27,12.30
2008,06,28,04,28,12.30
2008,06,28,04,29,12.30
2008,06,28,04,30,12.30
2008,06,28,04,31,12.30
2008,06,28,04,32,12.30
2008,06,28,04,33,12.30
2008,06,28,04,34,12.30
2008,06,28,04,35,12.30
2008,06,28,04,36,12.30
2008,06,28,04,37,12.30
2008,06,28,04,38,12.30
2008,06,28,04,39,12.30
2008,06,28,04,40,12.30
2008,06,28,04,41,12.30
2008,06,28,04,42,12.30
2008,06,28,04,43,12.30
2008,06,28,04,44,12.30
2008,06,28,04,45,12.30
2008,06,28,04,46,12.30
2008,06,28,04,47,12.30
2008,06,28,04,48,12.20
2008,06,28,04,49,12.20
2008,06,28,04,50,12.20
2008,06,28,04,51,12.20
2008,06,28,04,52,12.20
2008,06,28,04,53,12.20
2008,06,28,04,54,12.20
2008,06,28,04,55,12.10
2008,06,28,04,56,12.10
2008,06,28,04,57,12.10
2008,06,28,04,58,12.10
2008,06,28,04,59,12.10
2008,06,28,05,00,12.10
2008,06,28,05,01,12.10
2008,06,28,05,02,12.10
2008,06,28,05,03,12.10
2008,06,28,05,04,12.10
2008,06,28,05,05,12.10
2008,06,28,05,06,12.10
2008,06,28,05,07,12.10
2008,06,28,05,08,12.10
2008,06,28,05,09,12.10
2008,06,28,05,10,12.10
2008,06,28,05,11,12.10
2008,06,28,05,12,12.10
2008,06,28,05,13,12.10
2008,06,28,05,14,12.10
2008,06,28,05,15,12.00
2008,06,28,05,16,12.00
2008,06,28,05,17,12.00
2008,06,28,05,18,12.00
2008,06,28,05,19,12.00
2008,06,28,05,20,12.00
2008,06,28,05,21,12.00
2008,06,28,05,22,12.00
2008,06,28,05,23,12.00
2008,06,28,05,24,12.00
2008,06,28,05,25,12.00
2008,06,28,05,26,12.00
2008,06,28,05,27,12.00
2008,06,28,05,28,12.00
2008,06,28,05,29,12.00
2008,06,28,05,30,12.00
2008,06,28,05,31,12.00
2008,06,28,05,32,12.00
2008,06,28,05,33,12.00
2008,06,28,05,34,12.00
2008,06,28,05,35,12.00
2008,06,28,05,36,12.00
2008,06,28,05,37,12.00
2008,06,28,05,38,12.00
2008,06,28,05,39,12.00
2008,06,28,05,40,12.00
2008,06,28,05,41,12.00
2008,06,28,05,42,12.00
2008,06,28,05,43,12.00
2008,06,28,05,44,12.00
2008,06,28,05,45,12.00
2008,06,28,05,46,12.00
2008,06,28,05,47,12.00
2008,06,28,05,48,12.00
2008,06,28,05,49,12.00
2008,06,28,05,50,12.00
2008,06,28,05,51,12.00
2008,06,28,05,52,12.00
2008,06,28,05,53,12.00
2008,06,28,05,54,12.00
2008,06,28,05,55,12.00
2008,06,28,05,56,12.00
2008,06,28,05,57,12.00
2008,06,28,05,58,12.00
2008,06,28,05,59,12.00
2008,06,28,06,00,12.00
2008,06,28,06,01,12.00
2008,06,28,06,02,12.00
2008,06,28,06,03,12.00
2008,06,28,06,04,12.00
2008,06,28,06,05,12.00
2008,06,28,06,06,12.00
2008,06,28,06,07,12.00
2008,06,28,06,08,12.00
2008,06,28,06,09,12.00
2008,06,28,06,10,12.00
2008,06,28,06,11,12.00
2008,06,28,06,12,12.00
2008,06,28,06,13,12.00
2008,06,28,06,14,12.10
2008,06,28,06,15,12.10
2008,06,28,06,16,12.10
2008,06,28,06,17,12.10
2008,06,28,06,18,12.10
2008,06,28,06,19,12.10
2008,06,28,06,20,12.10
2008,06,28,06,21,12.10
2008,06,28,06,22,12.10
2008,06,28,06,23,12.20
2008,06,28,06,24,12.20
2008,06,28,06,25,12.20
2008,06,28,06,26,12.20
2008,06,28,06,27,12.20
2008,06,28,06,28,12.30
2008,06,28,06,29,12.30
2008,06,28,06,30,12.30
2008,06,28,06,31,12.30
2008,06,28,06,32,12.30
2008,06,28,06,33,12.30
2008,06,28,06,34,12.30
2008,06,28,06,35,12.30
2008,06,28,06,36,12.40
2008,06,28,06,37,12.40
2008,06,28,06,38,12.40
2008,06,28,06,39,12.40
2008,06,28,06,40,12.40
2008,06,28,06,41,12.40
2008,06,28,06,42,12.40
2008,06,28,06,43,12.50
2008,06,28,06,44,12.50
2008,06,28,06,45,12.50
2008,06,28,06,46,12.50
2008,06,28,06,47,12.60
2008,06,28,06,48,12.60
2008,06,28,06,49,12.60
2008,06,28,06,50,12.60
2008,06,28,06,51,12.60
2008,06,28,06,52,12.70
2008,06,28,06,53,12.70
2008,06,28,06,54,12.70
2008,06,28,06,55,12.70
2008,06,28,06,56,12.80
2008,06,28,06,57,12.80
2008,06,28,06,58,12.80
2008,06,28,06,59,12.80
2008,06,28,07,00,12.80
2008,06,28,07,01,12.80
2008,06,28,07,02,12.90
2008,06,28,07,03,12.90
2008,06,28,07,04,13.00
2008,06,28,07,05,13.00
2008,06,28,07,06,13.10
2008,06,28,07,07,13.10
2008,06,28,07,08,13.10
2008,06,28,07,09,13.20
2008,06,28,07,10,13.20
2008,06,28,07,11,13.20
2008,06,28,07,12,13.30
2008,06,28,07,13,13.30
2008,06,28,07,14,13.30
2008,06,28,07,15,13.30
2008,06,28,07,16,13.40
2008,06,28,07,17,13.40
2008,06,28,07,18,13.40
2008,06,28,07,19,13.50
2008,06,28,07,20,13.50
2008,06,28,07,21,13.60
2008,06,28,07,22,13.60
2008,06,28,07,23,13.70
2008,06,28,07,24,13.70
2008,06,28,07,25,13.80
2008,06,28,07,26,13.90
2008,06,28,07,27,13.90
2008,06,28,07,28,14.00
2008,06,28,07,29,14.00
2008,06,28,07,30,14.10
2008,06,28,07,31,14.10
2008,06,28,07,32,14.20
2008,06,28,07,33,14.20
2008,06,28,07,34,14.20
2008,06,28,07,35,14.30
2008,06,28,07,36,14.30
2008,06,28,07,37,14.40
2008,06,28,07,38,14.50
2008,06,28,07,39,14.50
2008,06,28,07,40,14.60
2008,06,28,07,41,14.60
2008,06,28,07,42,14.70
2008,06,28,07,43,14.80
2008,06,28,07,44,14.90
2008,06,28,07,45,15.00
2008,06,28,07,46,15.10
2008,06,28,07,47,15.20
2008,06,28,07,48,15.30
2008,06,28,07,49,15.40
2008,06,28,07,50,15.60
2008,06,28,07,51,15.90
2008,06,28,07,52,16.20
2008,06,28,07,53,16.40
2008,06,28,07,54,16.70
2008,06,28,07,55,17.00
2008,06,28,07,56,17.20
2008,06,28,07,57,17.40
2008,06,28,07,58,17.60
2008,06,28,07,59,17.70
2008,06,28,08,00,17.90
2008,06,28,08,01,18.00
2008,06,28,08,02,18.30
2008,06,28,08,03,18.50
2008,06,28,08,04,18.60
2008,06,28,08,05,18.70
2008,06,28,08,06,18.90
2008,06,28,08,07,19.10
2008,06,28,08,08,19.20
2008,06,28,08,09,19.30
2008,06,28,08,10,19.40
2008,06,28,08,11,19.60
2008,06,28,08,12,19.80
2008,06,28,08,13,19.90
2008,06,28,08,14,20.10
2008,06,28,08,15,20.20
2008,06,28,08,16,20.30
2008,06,28,08,17,20.40
2008,06,28,08,18,20.50
2008,06,28,08,19,20.50
2008,06,28,08,20,20.60
2008,06,28,08,21,20.70
2008,06,28,08,22,20.70
2008,06,28,08,23,20.80
2008,06,28,08,24,20.80
2008,06,28,08,25,20.90
2008,06,28,08,26,20.90
2008,06,28,08,27,21.00
2008,06,28,08,28,21.00
2008,06,28,08,29,21.00
2008,06,28,08,30,21.00
2008,06,28,08,31,21.00
2008,06,28,08,32,21.00
2008,06,28,08,33,21.00
2008,06,28,08,34,21.00
2008,06,28,08,35,21.00
2008,06,28,08,36,21.00
2008,06,28,08,37,21.00
2008,06,28,08,38,21.10
2008,06,28,08,39,21.10
2008,06,28,08,40,21.10
2008,06,28,08,41,21.20
2008,06,28,08,42,21.30
2008,06,28,08,43,21.30
2008,06,28,08,44,21.30
2008,06,28,08,45,21.30
2008,06,28,08,46,21.30
2008,06,28,08,47,21.30
2008,06,28,08,48,21.30
2008,06,28,08,49,21.30
2008,06,28,08,50,21.30
2008,06,28,08,51,21.30
2008,06,28,08,52,21.30
2008,06,28,08,53,21.30
2008,06,28,08,54,21.30
2008,06,28,08,55,21.30
2008,06,28,08,56,21.30
2008,06,28,08,57,21.30
2008,06,28,08,58,21.30
2008,06,28,08,59,21.40
2008,06,28,09,00,21.40
2008,06,28,09,01,21.40
2008,06,28,09,02,21.40
2008,06,28,09,03,21.40
2008,06,28,09,04,21.40
2008,06,28,09,05,21.40
2008,06,28,09,06,21.40
2008,06,28,09,07,21.40
2008,06,28,09,08,21.40
2008,06,28,09,09,21.40
2008,06,28,09,10,21.40
2008,06,28,09,11,21.40
2008,06,28,09,12,21.40
2008,06,28,09,13,21.50
2008,06,28,09,14,21.60
2008,06,28,09,15,21.60
2008,06,28,09,16,21.60
2008,06,28,09,17,21.70
2008,06,28,09,18,21.70
2008,06,28,09,19,21.80
2008,06,28,09,20,21.80
2008,06,28,09,21,21.90
2008,06,28,09,22,21.90
2008,06,28,09,23,22.00
2008,06,28,09,24,22.00
2008,06,28,09,25,22.00
2008,06,28,09,26,22.10
2008,06,28,09,27,22.10
2008,06,28,09,28,22.10
2008,06,28,09,29,22.10
2008,06,28,09,30,22.10
2008,06,28,09,31,22.20
2008,06,28,09,32,22.20
2008,06,28,09,33,22.20
2008,06,28,09,34,22.20
2008,06,28,09,35,22.20
2008,06,28,09,36,22.20
2008,06,28,09,37,22.20
2008,06,28,09,38,22.30
2008,06,28,09,39,22.30
2008,06,28,09,40,22.30
2008,06,28,09,41,22.30
2008,06,28,09,42,22.30
2008,06,28,09,43,22.30
2008,06,28,09,44,22.30
2008,06,28,09,45,22.30
2008,06,28,09,46,22.40
2008,06,28,09,47,22.40
2008,06,28,09,48,22.40
2008,06,28,09,49,22.40
2008,06,28,09,50,22.50
2008,06,28,09,51,22.50
2008,06,28,09,52,22.50
2008,06,28,09,53,22.50
2008,06,28,09,54,22.50
2008,06,28,09,55,22.50
2008,06,28,09,56,22.60
2008,06,28,09,57,22.60
2008,06,28,09,58,22.60
2008,06,28,09,59,22.60
2008,06,28,10,00,22.60
2008,06,28,10,01,22.70
2008,06,28,10,02,22.70
2008,06,28,10,03,22.70
2008,06,28,10,04,22.70
2008,06,28,10,05,22.70
2008,06,28,10,06,22.70
2008,06,28,10,07,22.80
2008,06,28,10,08,22.80
2008,06,28,10,09,22.80
2008,06,28,10,10,22.90
2008,06,28,10,11,22.90
2008,06,28,10,12,22.90
2008,06,28,10,13,22.90
2008,06,28,10,14,22.90
2008,06,28,10,15,22.90
2008,06,28,10,16,22.90
2008,06,28,10,17,22.90
2008,06,28,10,18,22.90
2008,06,28,10,19,22.90
2008,06,28,10,20,22.90
2008,06,28,10,21,22.90
2008,06,28,10,22,23.00
2008,06,28,10,23,23.10
2008,06,28,10,24,23.10
2008,06,28,10,25,23.10
2008,06,28,10,26,23.10
2008,06,28,10,27,23.10
2008,06,28,10,28,23.10
2008,06,28,10,29,23.10
2008,06,28,10,30,23.10
2008,06,28,10,31,23.10
2008,06,28,10,32,23.10
2008,06,28,10,33,23.20
2008,06,28,10,34,23.20
2008,06,28,10,35,23.20
2008,06,28,10,36,23.20
2008,06,28,10,37,23.20
2008,06,28,10,38,23.20
2008,06,28,10,39,23.20
2008,06,28,10,40,23.20
2008,06,28,10,41,23.20
2008,06,28,10,42,23.20
2008,06,28,10,43,23.20
2008,06,28,10,44,23.30
2008,06,28,10,45,23.30
2008,06,28,10,46,23.30
2008,06,28,10,47,23.30
2008,06,28,10,48,23.30
2008,06,28,10,49,23.30
2008,06,28,10,50,23.30
2008,06,28,10,51,23.30
2008,06,28,10,52,23.30
2008,06,28,10,53,23.40
2008,06,28,10,54,23.40
2008,06,28,10,55,23.40
2008,06,28,10,56,23.40
2008,06,28,10,57,23.40
2008,06,28,10,58,23.40
2008,06,28,10,59,23.60
2008,06,28,11,00,23.60
2008,06,28,11,01,23.60
2008,06,28,11,02,23.60
2008,06,28,11,03,23.70
2008,06,28,11,04,23.70
2008,06,28,11,05,23.70
2008,06,28,11,06,23.70
2008,06,28,11,07,23.70
2008,06,28,11,08,23.70
2008,06,28,11,09,23.70
2008,06,28,11,10,23.70
2008,06,28,11,11,23.70
2008,06,28,11,12,23.70
2008,06,28,11,13,23.70
2008,06,28,11,14,23.70
2008,06,28,11,15,23.70
2008,06,28,11,16,23.80
2008,06,28,11,17,23.80
2008,06,28,11,18,23.80
2008,06,28,11,19,23.90
2008,06,28,11,20,23.90
2008,06,28,11,21,24.00
2008,06,28,11,22,24.10
2008,06,28,11,23,24.10
2008,06,28,11,24,24.10
2008,06,28,11,25,24.10
2008,06,28,11,26,24.20
2008,06,28,11,27,24.20
2008,06,28,11,28,24.20
2008,06,28,11,29,24.30
2008,06,28,11,30,24.30
2008,06,28,11,31,24.30
2008,06,28,11,32,24.40
2008,06,28,11,33,24.40
2008,06,28,11,34,24.40
2008,06,28,11,35,24.40
2008,06,28,11,36,24.40
2008,06,28,11,37,24.40
2008,06,28,11,38,24.40
2008,06,28,11,39,24.40
2008,06,28,11,40,24.30
2008,06,28,11,41,24.40
2008,06,28,11,42,24.40
2008,06,28,11,43,24.40
2008,06,28,11,44,24.40
2008,06,28,11,45,24.40
2008,06,28,11,46,24.40
2008,06,28,11,47,24.50
2008,06,28,11,48,24.50
2008,06,28,11,49,24.50
2008,06,28,11,50,24.50
2008,06,28,11,51,24.50
2008,06,28,11,52,24.60
2008,06,28,11,53,24.60
2008,06,28,11,54,24.60
2008,06,28,11,55,24.70
2008,06,28,11,56,24.70
2008,06,28,11,57,24.70
2008,06,28,11,58,24.70
2008,06,28,11,59,24.70
2008,06,28,12,00,24.70
2008,06,28,12,01,24.70
2008,06,28,12,02,24.70
2008,06,28,12,03,24.70
2008,06,28,12,04,24.70
2008,06,28,12,05,24.70
2008,06,28,12,06,24.70
2008,06,28,12,07,24.80
2008,06,28,12,08,24.80
2008,06,28,12,09,24.80
2008,06,28,12,10,24.80
2008,06,28,12,11,24.80
2008,06,28,12,12,24.80
2008,06,28,12,13,24.90
2008,06,28,12,14,24.90
2008,06,28,12,15,24.90
2008,06,28,12,16,25.00
2008,06,28,12,17,25.00
2008,06,28,12,18,25.10
2008,06,28,12,19,25.10
2008,06,28,12,20,25.20
2008,06,28,12,21,25.30
2008,06,28,12,22,25.30
2008,06,28,12,23,25.40
2008,06,28,12,24,25.40
2008,06,28,12,25,25.40
2008,06,28,12,26,25.40
2008,06,28,12,27,25.40
2008,06,28,12,28,25.40
2008,06,28,12,29,25.50
2008,06,28,12,30,25.50
2008,06,28,12,31,25.60
2008,06,28,12,32,25.60
2008,06,28,12,33,25.60
2008,06,28,12,34,25.70
2008,06,28,12,35,25.70
2008,06,28,12,36,25.80
2008,06,28,12,37,25.80
2008,06,28,12,38,25.80
2008,06,28,12,39,25.90
2008,06,28,12,40,25.90
2008,06,28,12,41,26.00
2008,06,28,12,42,26.10
2008,06,28,12,43,26.10
2008,06,28,12,44,26.20
2008,06,28,12,45,26.30
2008,06,28,12,46,26.30
2008,06,28,12,47,26.30
2008,06,28,12,48,26.40
2008,06,28,12,49,26.40
2008,06,28,12,50,26.50
2008,06,28,12,51,26.60
2008,06,28,12,52,26.60
2008,06,28,12,53,26.60
2008,06,28,12,54,26.60
2008,06,28,12,55,26.70
2008,06,28,12,56,26.70
2008,06,28,12,57,26.70
2008,06,28,12,58,26.70
2008,06,28,12,59,26.70
2008,06,28,13,00,26.70
2008,06,28,13,01,26.70
2008,06,28,13,02,26.70
2008,06,28,13,03,26.70
2008,06,28,13,04,26.70
2008,06,28,13,05,26.70
2008,06,28,13,06,26.80
2008,06,28,13,07,26.80
2008,06,28,13,08,26.90
2008,06,28,13,09,27.00
2008,06,28,13,10,27.10
2008,06,28,13,11,27.10
2008,06,28,13,12,27.10
2008,06,28,13,13,27.10
2008,06,28,13,14,26.90
2008,06,28,13,15,26.90
2008,06,28,13,16,26.90
2008,06,28,13,17,26.90
2008,06,28,13,18,26.90
2008,06,28,13,19,26.90
2008,06,28,13,20,27.00
2008,06,28,13,21,27.20
2008,06,28,13,22,27.20
2008,06,28,13,23,27.30
2008,06,28,13,24,27.40
2008,06,28,13,25,27.50
2008,06,28,13,26,27.60
2008,06,28,13,27,27.60
2008,06,28,13,28,27.60
2008,06,28,13,29,27.60
2008,06,28,13,30,27.60
2008,06,28,13,31,27.70
2008,06,28,13,32,27.70
2008,06,28,13,33,27.80
2008,06,28,13,34,27.80
2008,06,28,13,35,27.80
2008,06,28,13,36,27.90
2008,06,28,13,37,27.90
2008,06,28,13,38,27.90
2008,06,28,13,39,28.00
2008,06,28,13,40,28.00
2008,06,28,13,41,28.10
2008,06,28,13,42,28.10
2008,06,28,13,43,28.10
2008,06,28,13,44,28.20
2008,06,28,13,45,28.20
2008,06,28,13,46,28.30
2008,06,28,13,47,28.30
2008,06,28,13,48,28.30
2008,06,28,13,49,28.30
2008,06,28,13,50,28.30
2008,06,28,13,51,28.20
2008,06,28,13,52,28.20
2008,06,28,13,53,28.20
2008,06,28,13,54,28.10
2008,06,28,13,55,28.10
2008,06,28,13,56,28.20
2008,06,28,13,57,28.20
2008,06,28,13,58,28.20
2008,06,28,13,59,28.20
2008,06,28,14,00,28.10
2008,06,28,14,01,28.10
2008,06,28,14,02,28.10
2008,06,28,14,03,28.10
2008,06,28,14,04,28.20
2008,06,28,14,05,28.20
2008,06,28,14,06,28.30
2008,06,28,14,07,28.30
2008,06,28,14,08,28.30
2008,06,28,14,09,28.30
2008,06,28,14,10,28.40
2008,06,28,14,11,28.40
2008,06,28,14,12,28.50
2008,06,28,14,13,28.60
2008,06,28,14,14,28.70
2008,06,28,14,15,28.90
2008,06,28,14,16,28.90
2008,06,28,14,17,29.10
2008,06,28,14,18,29.20
2008,06,28,14,19,29.30
2008,06,28,14,20,29.30
2008,06,28,14,21,29.30
2008,06,28,14,22,29.10
2008,06,28,14,23,29.10
2008,06,28,14,24,29.10
2008,06,28,14,25,29.10
2008,06,28,14,26,29.20
2008,06,28,14,27,29.30
2008,06,28,14,28,29.30
2008,06,28,14,29,29.30
2008,06,28,14,30,29.30
2008,06,28,14,31,29.30
2008,06,28,14,32,29.30
2008,06,28,14,33,29.30
2008,06,28,14,34,29.30
2008,06,28,14,35,29.20
2008,06,28,14,36,29.20
2008,06,28,14,37,29.20
2008,06,28,14,38,29.30
2008,06,28,14,39,29.30
2008,06,28,14,40,29.30
2008,06,28,14,41,29.40
2008,06,28,14,42,29.40
2008,06,28,14,43,29.40
2008,06,28,14,44,29.30
2008,06,28,14,45,29.30
2008,06,28,14,46,29.20
2008,06,28,14,47,29.20
2008,06,28,14,48,29.20
2008,06,28,14,49,29.20
2008,06,28,14,50,29.20
2008,06,28,14,51,29.20
2008,06,28,14,52,29.20
2008,06,28,14,53,29.10
2008,06,28,14,54,29.10
2008,06,28,14,55,29.20
2008,06,28,14,56,29.30
2008,06,28,14,57,29.30
2008,06,28,14,58,29.40
2008,06,28,14,59,29.40
2008,06,28,15,00,29.40
2008,06,28,15,01,29.40
2008,06,28,15,02,29.40
2008,06,28,15,03,29.50
2008,06,28,15,04,29.50
2008,06,28,15,05,29.50
2008,06,28,15,06,29.60
2008,06,28,15,07,29.60
2008,06,28,15,08,29.70
2008,06,28,15,09,29.70
2008,06,28,15,10,29.70
2008,06,28,15,11,29.60
2008,06,28,15,12,29.60
2008,06,28,15,13,29.60
2008,06,28,15,14,29.60
2008,06,28,15,15,29.60
2008,06,28,15,16,29.60
2008,06,28,15,17,29.60
2008,06,28,15,18,29.50
2008,06,28,15,19,29.50
2008,06,28,15,20,29.50
2008,06,28,15,21,29.60
2008,06,28,15,22,29.60
2008,06,28,15,23,29.60
2008,06,28,15,24,29.60
2008,06,28,15,25,29.60
2008,06,28,15,26,29.60
2008,06,28,15,27,29.60
2008,06,28,15,28,29.70
2008,06,28,15,29,29.70
2008,06,28,15,30,29.80
2008,06,28,15,31,29.80
2008,06,28,15,32,29.70
2008,06,28,15,33,29.70
2008,06,28,15,34,29.70
2008,06,28,15,35,29.60
2008,06,28,15,36,29.60
2008,06,28,15,37,29.50
2008,06,28,15,38,29.50
2008,06,28,15,39,29.60
2008,06,28,15,40,29.60
2008,06,28,15,41,29.70
2008,06,28,15,42,29.70
2008,06,28,15,43,29.80
2008,06,28,15,44,29.80
2008,06,28,15,45,29.80
2008,06,28,15,46,29.70
2008,06,28,15,47,29.70
2008,06,28,15,48,29.70
2008,06,28,15,49,29.70
2008,06,28,15,50,29.70
2008,06,28,15,51,29.60
2008,06,28,15,52,29.60
2008,06,28,15,53,29.50
2008,06,28,15,54,29.50
2008,06,28,15,55,29.50
2008,06,28,15,56,29.50
2008,06,28,15,57,29.50
2008,06,28,15,58,29.50
2008,06,28,15,59,29.50
2008,06,28,16,00,29.50
2008,06,28,16,01,29.50
2008,06,28,16,02,29.50
2008,06,28,16,03,29.50
2008,06,28,16,04,29.50
2008,06,28,16,05,29.50
2008,06,28,16,06,29.50
2008,06,28,16,07,29.50
2008,06,28,16,08,29.50
2008,06,28,16,09,29.50
2008,06,28,16,10,29.50
2008,06,28,16,11,29.50
2008,06,28,16,12,29.50
2008,06,28,16,13,29.40
2008,06,28,16,14,29.40
2008,06,28,16,15,29.40
2008,06,28,16,16,29.40
2008,06,28,16,17,29.30
2008,06,28,16,18,29.30
2008,06,28,16,19,29.30
2008,06,28,16,20,29.30
2008,06,28,16,21,29.30
2008,06,28,16,22,29.30
2008,06,28,16,23,29.30
2008,06,28,16,24,29.30
2008,06,28,16,25,29.30
2008,06,28,16,26,29.40
2008,06,28,16,27,29.40
2008,06,28,16,28,29.40
2008,06,28,16,29,29.40
2008,06,28,16,30,29.40
2008,06,28,16,31,29.50
2008,06,28,16,32,29.50
2008,06,28,16,33,29.50
2008,06,28,16,34,29.50
2008,06,28,16,35,29.50
2008,06,28,16,36,29.50
2008,06,28,16,37,29.50
2008,06,28,16,38,29.50
2008,06,28,16,39,29.50
2008,06,28,16,40,29.60
2008,06,28,16,41,29.60
2008,06,28,16,42,29.60
2008,06,28,16,43,29.60
2008,06,28,16,44,29.50
2008,06,28,16,45,29.50
2008,06,28,16,46,29.50
2008,06,28,16,47,29.50
2008,06,28,16,48,29.50
2008,06,28,16,49,29.50
2008,06,28,16,50,29.60
2008,06,28,16,51,29.60
2008,06,28,16,52,29.60
2008,06,28,16,53,29.60
2008,06,28,16,54,29.60
2008,06,28,16,55,29.60
2008,06,28,16,56,29.60
2008,06,28,16,57,29.60
2008,06,28,16,58,29.60
2008,06,28,16,59,29.60
2008,06,28,17,00,29.60
2008,06,28,17,01,29.60
2008,06,28,17,02,29.60
2008,06,28,17,03,29.60
2008,06,28,17,04,29.60
2008,06,28,17,05,29.60
2008,06,28,17,06,29.60
2008,06,28,17,07,29.60
2008,06,28,17,08,29.60
2008,06,28,17,09,29.60
2008,06,28,17,10,29.60
2008,06,28,17,11,29.60
2008,06,28,17,12,29.60
2008,06,28,17,13,29.60
2008,06,28,17,14,29.60
2008,06,28,17,15,29.60
2008,06,28,17,16,29.60
2008,06,28,17,17,29.70
2008,06,28,17,18,29.70
2008,06,28,17,19,29.70